Flag for Germany Weather past 2 weeks in Weiden in der Oberpfalz, Bavaria, Germany

Now
43 °F

Overcast.


Feels Like: 38 °F
Forecast: 37 / 49 °F
Wind: 7 mph from West

Location: Weiden

Current Time: Mar 27, 2015 at 6:27:29 PM

Latest Report: Mar 27, 2015 at 6:00 PM


Visibility: 14 mi

Pressure: 30.12 "Hg

Humidity: 71%

Dew point: 34 °F

Location of Weiden in der OberpfalzLocation

Historic Weather in Weiden in der Oberpfalz — Graph

°F

Weiden in der Oberpfalz temperature yesterday

Maximum temperature yesterday: 52 °F (at 12:00 AM)
Minimum temperature yesterday: 39 °F (at 11:00 PM)
Average temperature yesterday: 45 °F

Past Weeks' High & Low Weather Summary

 TemperatureHumidityPressure
High60 °F (Mar 25, 2:00 PM)97% (Mar 15, 1:00 AM)30.42 "Hg (Mar 15, 1:00 AM)
Low28 °F (Mar 21, 6:00 AM)28% (Mar 20, 5:00 PM)29.58 "Hg (Mar 25, 4:00 PM)
Average42 °F73%30.12 "Hg
* Reported Mar 12 5:00 PM — Mar 27 5:00 PM, Weiden in der Oberpfalz, Weather by CustomWeather, © 2015

Note: Actual official high and low records may vary slightly from our data, if they occured in-between our weather recording intervals... More about our weather records

Advertising

Weiden in der Oberpfalz weather history for previous 24 hours

 ConditionsComfort  
Time TempWeatherWind HumidityBarometerVisibility
5:00 PM
Fri, Mar 27
44 °FOvercast.6 mph66%30.08 "Hg14 mi
4:00 PM42 °FOvercast.5 mph75%30.07 "Hg17 mi
3:00 PM49 °FPartly sunny.5 mph56%30.02 "Hg10 mi
2:00 PM47 °FOvercast.6 mph54%30.02 "Hg14 mi
1:00 PM43 °FOvercast.6 mph69%30.03 "Hg11 mi
12:00 PM40 °FOvercast.7 mph76%30.03 "Hg11 mi
11:00 AM42 °FOvercast.3 mph80%30.01 "Hg9 mi
10:00 AM43 °FOvercast.3 mph83%30.00 "Hg6 mi
9:00 AM41 °FDrizzle. Low clouds.3 mph90%29.99 "Hg6 mi
8:00 AM40 °FDrizzle. Low clouds.3 mph94%29.97 "Hg3 mi
7:00 AM39 °FLow clouds.2 mph95%29.95 "Hg4 mi
6:00 AM39 °FDrizzle. Low clouds.2 mph94%29.92 "Hg2 mi
5:00 AM38 °FLow clouds.3 mph95%29.91 "Hg3 mi
4:00 AM38 °FDrizzle. Overcast.3 mph96%29.90 "Hg3 mi
3:00 AM38 °FLight rain. Low clouds.3 mph93%29.89 "Hg2 mi
2:00 AM39 °FFog.2 mph93%29.88 "Hg2 mi
1:00 AM39 °FFog.3 mph94%29.87 "Hg2 mi
12:00 AM39 °FFog.2 mph93%29.86 "Hg2 mi
11:00 PM
Thu, Mar 26
39 °FOvercast.2 mph92%29.86 "Hg3 mi
10:00 PM40 °FLight freezing rain. Low clouds.5 mph91%29.87 "Hg2 mi
9:00 PM41 °FLight rain. Low clouds.2 mph95%29.84 "Hg1 mi
8:00 PM42 °FLight freezing rain. Overcast.1 mph94%29.83 "Hg1 mi
7:00 PM42 °FLight rain. Overcast.2 mph87%29.83 "Hg2 mi
6:00 PM43 °FFog.2 mph86%29.81 "Hg2 mi
Weather by CustomWeather, © 2015

See weather overviewHow to use our weather pages